Location: Newark
(2.1500°N, 12.1333°E)
Time: 18:48:41
(UTC+00:00)

Hubble Space Telescope - Visible Passes

Search period start: 15 November 2019 00:00
Search period end: 25 November 2019 00:00
Orbit: 536 x 540 km, 28.5° (Epoch: 14 November)

Date Brightness Start Highest point End Pass type
(mag) Time Alt. Az. Time Alt. Az. Time Alt. Az.
15 Nov 0.6 03:30:23 66° NW 03:30:54 85° NNE 03:35:03 10° ESE visible
16 Nov 0.9 03:20:35 64° S 03:20:35 64° S 03:24:26 10° SE visible
17 Nov 1.9 03:10:45 37° S 03:10:45 37° S 03:13:43 10° SE visible
18 Nov 2.7 03:00:52 23° SSE 03:00:52 23° SSE 03:02:53 10° SE visible
19 Nov 3.4 02:50:57 15° SSE 02:50:57 15° SSE 02:51:56 10° SSE visible
